Terminal Aerodrome Forecast
Issued by NWS Jackson, MS

Home | Current Version | Previous Version | Text Only | Print | Product List | Glossary On
Versions: 1 2 3 4 5 6 7 8 9 10 11 12 13 14 15 16 17 18 19 20 21 22 23 24 25
000
FTUS44 KMEG 261120
TAFTUP
TAF
KTUP 261120Z 2612/2712 17002KT P6SM SKC
     FM261500 19008KT P6SM BKN250
     FM270000 18006KT P6SM BKN250
     FM270400 18007KT P6SM OVC050=

USA.gov is the U.S. government's official web portal to all federal, state and local government web resources and services.